Regional Weather Roundup
Issued by NWS New Orleans/Baton Rouge, LA

Home | Current Version | Previous Version | Graphics & Text | Print | Product List | Glossary On
Versions: 1 2 3 4 5 6 7 8 9 10 11 12 13 14 15 16 17 18 19 20 21 22 23 24 25 26 27 28 29 30 31 32 33 34 35 36 37 38 39 40 41 42 43 44 45 46 47 48 49 50
800
ASUS44 KLIX 010410
RWRLIX
NEW ORLEANS REGIONAL WEATHER ROUNDUP
NATIONAL WEATHER SERVICE NEW ORLEANS LA
1100 PM CDT THU JUL 31 2014

NOTE: "FAIR" INDICATES FEW OR NO CLOUDS BELOW 12,000 FEET WITH NO
      SIGNIFICANT WEATHER AND/OR OBSTRUCTIONS TO VISIBILITY.
      SKY/WX - SKY CONDITION AND SIGNIFICANT WEATHER.
      TMP - AIR TEMPERATURE.     DP    - DEWPOINT TEMPERATURE.
      RH  - RELATIVE HUMIDITY.   PRES  - PRESSURE.
      HI  - HEAT INDEX.          WCI   - WIND CHILL INDEX.

*  THESE STATIONS ARE NOT NWS OR FAA STATIONS AND ARE NOT UNDER
   NWS QUALITY CONTROL.

LAZ038-040-048-061>063-065>067-069-010500-
SOUTHEAST LOUISIANA

CITY           SKY/WX    TMP DP  RH WIND       PRES   REMARKS
N.O. AUDUBON     N/A     81  70  69 MISG        N/A
N.O. INTL ARPT MOCLDY    80  70  71 SE7       30.01R
N.O. LAKEFRONT PTCLDY    81  69  67 SE5       30.01R
N.O. DOWNTOWN*   N/A     84  66  54 S3        30.01R
SLIDELL        PTCLDY    74  69  85 CALM      30.01R
BATON ROUGE    MOCLDY    77  67  71 NE3       30.00R
BOOTHVILLE     PTCLDY    78  67  68 SE5       30.01R
BELLE CHASSE   MOCLDY    76  70  82 CALM      30.01R
BOGALUSA*        N/A     73  68  83 CALM      30.03R
GALLIANO*      NOT AVBL
NEW ROADS*       N/A     77  66  68 E6        30.00R
GONZALES*      MOCLDY    76  74  93 CALM      30.00R
HAMMOND*       PTCLDY    77  64  65 E5        30.02S
HOUMA*         CLEAR     74  69  83 E3        30.00R
PORT FOURCHON* PTCLDY    82  70  65 E5        30.02R

$$

MSZ070-080>082-010500-
SOUTHERN MISSISSIPPI

CITY           SKY/WX    TMP DP  RH WIND       PRES   REMARKS
MCCOMB         MOCLDY    73  64  73 CALM      30.02R
GULFPORT       CLEAR     80  66  62 NE3       30.00R
BILOXI         NOT AVBL
PASCAGOULA     PTCLDY    70  67  90 CALM      30.00S

$$

COASTAL OBSERVATIONS
LAKE AND NEARSHORE STATIONS

STATION/POSITION TIME  TEMP    WIND        PRES    WAVE
                       AIR SEA DIR/SP/G            HT/PER
                 (UTC) (F)     (DEG/KT/KT) (MB)    (FT/S)
PASCAGOULA       0400   77     320/  5/  5 1015.3
WAVELAND YACHT   0400   79      40/  6/  8 1015.4
GRAND ISLE       0400   82 88  100/  4/  6 1016.6
SOUTHWEST PASS   0400   81 85  100/  6/  7 1016.3
NEW CANAL        0400   82 84   CALM  /  1 1016.6
SHELL BEACH      0400   81 82  140/  3/  5 1015.8

OFFSHORE STATIONS

STATION/POSITION TIME  TEMP    WIND        PRES    WAVE
                       AIR SEA DIR/SP/G            HT/PER
                 (UTC) (F)     (DEG/KT/KT) (MB)    (FT/S)
64 S DAUPHIN ISL 0252   82 84   CALM  /  2 1016.2

$$




USA.gov is the U.S. government's official web portal to all federal, state and local government web resources and services.